Portada
METAR-TAF:

METAR-TAF

Aeropuertos :

Aeropuerto Almirante Padilla

Riohacha, Colombia

latitud: 11-32N, longitud: 072-56W, altitud: 4 m

Observación

El informe se hizo hace 1 hora y 6 minutos, a las 15:00 UTC
Viento 10 kt del este
Temperatura 31°C
Humedad 71%
Presión 1011 hPa
Visibilidad 10 km o más
Nubes dispersas a una altura de 1500 ft

METAR: SKRH 171500Z 10010KT 9999 SCT015 31/25 A2986

Hora: 11:06 (16:06 UTC)


TAF: falta

Observaciones y pronósticos meteorológicos de más de 4000 aeropuertos (mensajes METAR y TAF).

Los puntos amarillos y rojos representan las estaciones disponibles.

Ponga el ratón en el punto deseado para ver el nombre de la estación.

Haga clic para ver las observaciones y los pronósticos meteorológicos.

Para cambiar el mapa : haga clic en los botones verdes con una cruz de color negro para hacer un zoom, en el botón verde con un guión para alejar o en las flechas verdes para mapas adyacentes.


METAR-TAF: